Location: Dreilärchen
(47.9312°N, 8.6113°E)
Time: 23:05:19
(UTC+00:00)

Cosmos 1455 Rocket - Pass Details

Date: 26 May 2022
Orbit: 604 x 629 km, 82.5° (Epoch: 02 July)

Event Time Altitude Azimuth Distance (km) Brightness Sun altitude
Rises 00:17:24 0° 355° (N) 2,933 7.8 -19.9°
Reaches altitude 10° 00:19:43 10° 1° (N) 2,020 6.8 -19.8°
Maximum altitude 00:24:04 48° 76° (ENE) 823 3.8 -19.6°
Enters shadow 00:26:16 26° 138° (SE) 1,249 4.3 -19.5°
